Regional Weather Roundup
Issued by NWS Austin/San Antonio, TX

Home | Current Version | Previous Version | Text Only | Print | Product List | Glossary On
Versions: 1 2 3 4 5 6 7 8 9 10 11 12 13 14 15 16 17 18 19 20 21 22 23 24 25 26 27 28 29 30 31 32 33 34 35 36 37 38 39 40 41 42 43 44 45 46 47 48 49 50
000
ASUS44 KEWX 220311
RWREWX
SOUTH TEXAS REGIONAL WEATHER ROUNDUP
NATIONAL WEATHER SERVICE AUSTIN/SAN ANTONIO TX
1000 PM CDT MON OCT 21 2019

NOTE: "FAIR" INDICATED FEW OR NO CLOUDS BELOW 12,000 FEET WITH NO
SIGNIFICANT WEATHER AND/OR OBSTRUCTIONS TO VISIBILITY.

* - THESE STATIONS ARE NOT NWS OR FAA STATIONS...AND ARE NOT SUBJECT
    TO NWS AND FAA QUALITY CONTROL.

TXZ171-172-183>190-220400-
TEXAS HILL COUNTRY AND EDWARDS PLATEAU

CITY           SKY/WX    TMP DP  RH WIND       PRES   REMARKS
JUNCTION       CLEAR     53  47  79 CALM      30.04R
*LLANO         CLEAR     57  37  47 CALM      30.07R
BURNET         CLEAR     61  36  39 NE6       30.06R
*HORSESHOE BAY CLEAR     61  39  44 SE3       30.05R
*KERRVILLE     CLEAR     54  44  69 CALM      30.03R
*FREDERICKSBRG CLEAR     53  47  80 CALM      30.04R
*ROCKSPRINGS   CLEAR     63  32  31 E6        30.08R
*BOERNE        CLEAR     52  45  76 CALM      30.04R
*CASTROVILLE   CLEAR     61  46  58 CALM      30.02R
HONDO          CLEAR     62  41  46 NE8       30.00R
*UVALDE        CLEAR     65  42  42 E6        30.00R
DEL RIO        CLEAR     63  37  38 CALM      29.96R
LAUGHLIN AFB   CLEAR     62  38  41 CALM      29.97R
SPOFFORD       CLEAR     64  36  35 NE7       29.92R
*EAGLE PASS    CLEAR     66  39  37 E3        29.97R
CARRIZO SPRGS  CLEAR     66  45  45 E5        29.96R
*FAITH RANCH   CLEAR     70  43  37 E7        29.97R
$$

TXZ173-191>194-202-209-217>225-228-220400-
CENTRAL AND SOUTH CENTRAL TEXAS

CITY           SKY/WX    TMP DP  RH WIND       PRES   REMARKS
GEORGETOWN     CLEAR     62  38  40 NE3       30.06R
AUSTIN/BERGSTM CLEAR     58  45  62 NE6       30.02R
AUSTIN/MABRY   CLEAR     65  32  29 NE3       30.04R
*AUSTIN/EXEC   CLEAR     59  41  51 NE6       30.04R
*LAGO VISTA    CLEAR     60  38  45 E6        30.05R
SAN MARCOS     CLEAR     57  42  57 NE8       30.03R
NEW BRAUNFELS  CLEAR     64  40  41 NE9       30.00R
RANDOLPH AFB   CLEAR     64  39  40 NE6       30.01R
SEGUIN         CLEAR     61  42  49 NE8       30.04R
KELLY FIELD    CLEAR     66  39  37 E3        29.98R
SAN ANTONIO    CLEAR     65  39  38 NE5       30.01R
STINSON FIELD  CLEAR     67  37  33 E7        29.98R
PLEASANTON     CLEAR     63  42  45 NE5       29.99R
*LA GRANGE     CLEAR     62  49  63 CALM      30.01R
*GIDDINGS      CLEAR     65  44  45 NE3       30.04R
*GONZALES      CLEAR     66  42  41 NE8       30.01R
$$

TXZ163>164-176>182-195>201-210>213-226-227-235-220400-
SOUTHEAST TEXAS

CITY           SKY/WX    TMP DP  RH WIND       PRES   REMARKS
COLLEGE STN    CLEAR     67  41  38 N10       30.03R
*BRYAN         CLEAR     63  45  51 N7        30.06R
*CALDWELL      CLEAR     62  43  50 N7        30.04R
*CROCKETT      CLEAR     54  48  82 CALM      30.08R
*BRENHAM       CLEAR     65  44  46 N6        30.03R
HUNTSVILLE     CLEAR     60  48  64 N3        30.03R
CONROE         CLEAR     55  53  93 CALM      30.02R
HOUSTON BUSH   PTCLDY    67  52  58 N6        30.00R
HOUSTON HOBBY  FAIR      68  55  63 N8        29.98R
*HOUSTON SW AP FAIR      62  56  82 CALM      29.99R
PEARLAND       FAIR      66  59  78 CALM      29.99R
HOUSTON HOOKS  FAIR      63  50  62 N5        30.00R
ELLINGTON FLD  PTCLDY    70  55  60 N3        29.96R
SUGAR LAND     FAIR      61  56  83 N6        29.99R
*HOUSTON EXEC  FAIR      59  52  77 N7        30.01R
*CLEVELAND MUN FAIR      58  58 100 CALM      30.02R
*WHARTON       CLEAR     60  48  65 N6        30.00R
*COLUMBUS      FAIR      58  44  58 N5        30.01R
*EAGLE LAKE    CLEAR     64  50  59 N7        30.00
$$

TXZ214>216-236>238-220400-
THE UPPER TEXAS COAST

CITY           SKY/WX    TMP DP  RH WIND       PRES   REMARKS
*ORANGE        FAIR      63  63 100 CALM      30.00R FOG
PORT ARTHUR    FOG       61  61 100 CALM      29.97R VSB 3/4
GALVESTON      FAIR      74  62  66 N14       29.97R
ANGLETON       FAIR      65  62  90 N3        29.97R
*BAY CITY      CLEAR     66  59  77 N3        29.98R
PALACIOS         N/A     64  55  72 N9        29.97
$$

TXZ229>234-239>247-220400-
TEXAS COASTAL BEND AND RIO GRANDE PLAINS

CITY           SKY/WX    TMP DP  RH WIND       PRES   REMARKS
VICTORIA       CLEAR     63  51  65 N8        29.98R
*BEEVILLE      CLEAR     67  47  47 NE7       29.97R
ROCKPORT       CLEAR     72  60  66 N8        29.96R
*PORT ARANSAS  CLEAR     75  60  60 N13       29.96R
*PORT LAVACA   CLEAR     66  55  68 N8        29.98R
*INGLESIDE     CLEAR     69  63  80 N7        29.96R
CORPUS CHRISTI PTCLDY    73  51  46 NE9       29.95R
CORPUS NAS     PTCLDY    74  65  73 N13       29.95R
*ROBSTOWN      CLEAR     73  47  39 NE7       29.96R
ALICE          CLEAR     69  44  40 NE7       29.95R
KINGSVILLE NAS PTCLDY    71  51  49 N8        29.95R
COTULLA        CLEAR     72  38  29 E8        29.97R
LAREDO         CLEAR     75  40  28 NE8       29.96R
$$

TXZ248>255-220400-
DEEP SOUTH TEXAS

CITY           SKY/WX    TMP DP  RH WIND       PRES   REMARKS
BROWNSVILLE    FAIR      78  70  76 N10       29.89R
PORT ISABEL    FAIR      78  70  76 N14       29.90R
HARLINGEN      CLEAR     74  68  81 NE7       29.90R
*HEBBRONVILLE  CLEAR     70  40  34 CALM      29.98R
MCALLEN        CLEAR     77  65  66 NE9       29.92R
*WESLACO       MOCLDY    74  65  75 NE5       29.91
FALFURRIAS     CLEAR     72  63  72 NE5       29.94R
EDINBURG       FAIR      73  65  75 NE5       29.92S
*ZAPATA        NOT AVBL
$$

TXZ213>215-236>238-242>244-246-247-251-254-255-220400-
CMAN STATIONS

STATION/POSITION TIME  TEMP    WIND        PRES    WAVE
                       AIR SEA DIR/SP/G            HT/PER
                 (UTC) (F)     (DEG/KT/KT) (MB)    (FT/S)
SABINE PASS      0230   69 77   70/  4/  5 1016.3
SEA RIM ST PARK  0300   67      50/  2/  3 1015.3
NORTH JETTY/GLS  0224   73 76   50/  8/  9 1013.5
EAGLE POINT      0230   74 76   20/  9/ 11 1014.1
MORGANS POINT    0230   71 77  360/  6/  7 1014.9
PORT O`CONNOR    0230   77 79   20/ 16/ 18 1014.1
PORT ARANSAS     0300   76 78   10/ 14/ 16 1014.0
MALAQUITE BEACH  0230   79 80   10/ 16/ 18 1013.3
BAFFIN BAY       0230   78 81   20/ 12/ 13 1013.5
PORT ISABEL      0230   78 81   20/ 11/ 17 1012.1
$$



USA.gov is the U.S. government's official web portal to all federal, state and local government web resources and services.